Time,TemperatureF,DewpointF,PressureIn,WindDirection,WindDirectionDegrees,WindSpeedMPH,WindSpeedGustMPH,Humidity,HourlyPrecipIn,Conditions,Clouds,dailyrainin,SoftwareType,DateUTC
2013-04-29 00:03:00,51.0,34.0,30.22,SSE,148,0.0,-999.0,51,-99.99,,,-99.99,,2013-04-29 04:03:00,
2013-04-29 00:13:00,51.0,34.0,30.22,SSE,148,0.0,-999.0,51,-99.99,,,-99.99,,2013-04-29 04:13:00,
2013-04-29 00:23:00,51.0,34.0,30.22,SSE,148,0.0,-999.0,51,-99.99,,,-99.99,,2013-04-29 04:23:00,
2013-04-29 00:33:00,50.0,34.0,30.22,SE,145,0.0,-999.0,54,-99.99,,,-99.99,,2013-04-29 04:33:00,
2013-04-29 00:43:00,50.0,34.0,30.22,SE,145,0.0,-999.0,54,-99.99,,,-99.99,,2013-04-29 04:43:00,
2013-04-29 00:52:00,49.0,33.0,30.22,NE,44,0.0,-999.0,53,-99.99,,,-99.99,,2013-04-29 04:52:00,
2013-04-29 01:02:00,49.0,33.0,30.22,SSE,162,0.0,-999.0,54,-99.99,,,-99.99,,2013-04-29 05:02:00,
2013-04-29 01:12:00,49.0,33.0,30.22,SSE,162,0.0,-999.0,54,-99.99,,,-99.99,,2013-04-29 05:12:00,
2013-04-29 01:22:00,49.0,33.0,30.22,SSE,160,0.0,-999.0,54,-99.99,,,-99.99,,2013-04-29 05:22:00,
2013-04-29 01:32:00,48.0,33.0,30.22,North,353,0.0,-999.0,56,-99.99,,,-99.99,,2013-04-29 05:32:00,
2013-04-29 01:42:00,48.0,33.0,30.22,North,353,0.0,-999.0,56,-99.99,,,-99.99,,2013-04-29 05:42:00,
2013-04-29 01:52:00,48.0,32.0,30.22,SSE,152,0.0,-999.0,54,-99.99,,,-99.99,,2013-04-29 05:52:00,
2013-04-29 02:02:00,48.0,32.0,30.21,East,100,0.0,-999.0,54,-99.99,,,-99.99,,2013-04-29 06:02:00,
2013-04-29 02:11:00,48.0,32.0,30.21,East,100,0.0,-999.0,54,-99.99,,,-99.99,,2013-04-29 06:11:00,
2013-04-29 02:21:00,48.0,34.0,30.21,NE,52,0.0,-999.0,57,-99.99,,,-99.99,,2013-04-29 06:21:00,
2013-04-29 02:32:00,48.0,32.0,30.21,SSE,168,0.0,-999.0,53,-99.99,,,-99.99,,2013-04-29 06:32:00,
2013-04-29 02:42:00,48.0,32.0,30.21,SSE,168,0.0,-999.0,53,-99.99,,,-99.99,,2013-04-29 06:42:00,
2013-04-29 02:52:00,48.0,32.0,30.20,WSW,248,0.0,-999.0,53,-99.99,,,-99.99,,2013-04-29 06:52:00,
2013-04-29 03:01:00,47.0,30.0,30.20,East,86,0.0,-999.0,52,-99.99,,,-99.99,,2013-04-29 07:01:00,
2013-04-29 03:11:00,47.0,30.0,30.20,East,86,0.0,-999.0,52,-99.99,,,-99.99,,2013-04-29 07:11:00,
2013-04-29 03:21:00,47.0,31.0,30.19,SSW,192,0.0,-999.0,54,-99.99,,,-99.99,,2013-04-29 07:21:00,
2013-04-29 03:32:00,47.0,30.0,30.19,East,89,0.0,-999.0,51,-99.99,,,-99.99,,2013-04-29 07:32:00,
2013-04-29 03:42:00,47.0,30.0,30.19,East,89,0.0,-999.0,51,-99.99,,,-99.99,,2013-04-29 07:42:00,
2013-04-29 03:52:00,47.0,31.0,30.19,ESE,102,0.0,-999.0,54,-99.99,,,-99.99,,2013-04-29 07:52:00,
2013-04-29 04:03:00,46.0,30.0,30.20,SSE,168,0.0,-999.0,54,-99.99,,,-99.99,,2013-04-29 08:03:00,
2013-04-29 04:11:00,46.0,30.0,30.20,SSE,168,0.0,-999.0,54,-99.99,,,-99.99,,2013-04-29 08:11:00,
2013-04-29 04:21:00,46.0,31.0,30.20,SE,126,0.0,-999.0,56,-99.99,,,-99.99,,2013-04-29 08:21:00,
2013-04-29 04:32:00,46.0,32.0,30.21,SE,126,0.0,-999.0,59,-99.99,,,-99.99,,2013-04-29 08:32:00,
2013-04-29 04:42:00,46.0,32.0,30.21,SE,126,0.0,-999.0,59,-99.99,,,-99.99,,2013-04-29 08:42:00,
2013-04-29 04:52:00,46.0,33.0,30.21,South,179,0.0,-999.0,61,-99.99,,,-99.99,,2013-04-29 08:52:00,
2013-04-29 05:01:00,46.0,34.0,30.20,SSE,167,0.0,-999.0,62,-99.99,,,-99.99,,2013-04-29 09:01:00,
2013-04-29 05:12:00,46.0,34.0,30.20,SSE,167,0.0,-999.0,62,-99.99,,,-99.99,,2013-04-29 09:12:00,
2013-04-29 05:21:00,45.0,34.0,30.20,SE,145,0.0,-999.0,65,-99.99,,,-99.99,,2013-04-29 09:21:00,
2013-04-29 05:33:00,45.0,35.0,30.21,South,176,0.0,-999.0,67,-99.99,,,-99.99,,2013-04-29 09:33:00,
2013-04-29 05:42:00,45.0,35.0,30.21,South,176,0.0,-999.0,67,-99.99,,,-99.99,,2013-04-29 09:42:00,
2013-04-29 05:53:00,45.0,35.0,30.21,South,184,0.0,-999.0,68,-99.99,,,-99.99,,2013-04-29 09:53:00,
2013-04-29 06:02:00,45.0,36.0,30.22,SE,145,0.0,-999.0,70,-99.99,,,-99.99,,2013-04-29 10:02:00,
2013-04-29 06:12:00,45.0,36.0,30.22,SE,145,0.0,-999.0,70,-99.99,,,-99.99,,2013-04-29 10:12:00,
2013-04-29 06:23:00,45.0,36.0,30.22,SE,134,0.0,-999.0,70,-99.99,,,-99.99,,2013-04-29 10:23:00,
2013-04-29 06:32:00,45.0,36.0,30.19,SE,134,0.0,-999.0,71,-99.99,,,-99.99,,2013-04-29 10:32:00,
2013-04-29 06:42:00,45.0,36.0,30.19,SE,134,0.0,-999.0,71,-99.99,,,-99.99,,2013-04-29 10:42:00,
2013-04-29 06:52:00,45.0,36.0,30.19,ESE,104,0.0,-999.0,71,-99.99,,,-99.99,,2013-04-29 10:52:00,
2013-04-29 07:03:00,45.0,36.0,30.19,SE,133,0.0,-999.0,71,-99.99,,,-99.99,,2013-04-29 11:03:00,
2013-04-29 07:12:00,45.0,36.0,30.19,SE,133,0.0,-999.0,71,-99.99,,,-99.99,,2013-04-29 11:12:00,
2013-04-29 07:22:00,46.0,37.0,30.20,SSE,147,0.0,-999.0,70,-99.99,,,-99.99,,2013-04-29 11:22:00,
2013-04-29 07:32:00,46.0,37.0,30.20,SSE,147,0.0,-999.0,71,-99.99,,,-99.99,,2013-04-29 11:32:00,
2013-04-29 07:42:00,46.0,37.0,30.20,SSE,147,0.0,-999.0,71,-99.99,,,-99.99,,2013-04-29 11:42:00,
2013-04-29 07:52:00,47.0,37.0,30.21,East,95,0.0,-999.0,68,-99.99,,,-99.99,,2013-04-29 11:52:00,
2013-04-29 08:01:00,48.0,38.0,30.20,SE,140,0.0,-999.0,68,-99.99,,,-99.99,,2013-04-29 12:01:00,
2013-04-29 08:12:00,48.0,38.0,30.20,SE,140,0.0,-999.0,68,-99.99,,,-99.99,,2013-04-29 12:12:00,
2013-04-29 08:22:00,49.0,39.0,30.20,South,178,0.0,-999.0,69,-99.99,,,-99.99,,2013-04-29 12:22:00,
2013-04-29 08:32:00,50.0,40.0,30.21,ENE,71,0.0,-999.0,68,-99.99,,,-99.99,,2013-04-29 12:32:00,
2013-04-29 08:42:00,50.0,40.0,30.21,ENE,71,0.0,-999.0,68,-99.99,,,-99.99,,2013-04-29 12:42:00,
2013-04-29 08:52:00,51.0,41.0,30.21,SSW,203,0.0,-999.0,68,-99.99,,,-99.99,,2013-04-29 12:52:00,
2013-04-29 09:01:00,51.0,40.0,30.21,SSW,212,0.0,-999.0,67,-99.99,,,-99.99,,2013-04-29 13:01:00,
2013-04-29 09:11:00,51.0,40.0,30.21,SSW,212,0.0,-999.0,67,-99.99,,,-99.99,,2013-04-29 13:11:00,
2013-04-29 09:21:00,52.0,41.0,30.21,South,189,1.0,-999.0,66,-99.99,,,-99.99,,2013-04-29 13:21:00,
2013-04-29 09:32:00,53.0,42.0,30.21,South,178,0.0,-999.0,66,-99.99,,,-99.99,,2013-04-29 13:32:00,
2013-04-29 09:42:00,53.0,42.0,30.21,South,178,0.0,-999.0,66,-99.99,,,-99.99,,2013-04-29 13:42:00,
2013-04-29 09:52:00,54.0,42.0,30.21,SW,222,0.0,-999.0,64,-99.99,,,-99.99,,2013-04-29 13:52:00,
2013-04-29 10:02:00,55.0,43.0,30.20,SE,128,1.0,-999.0,63,-99.99,,,-99.99,,2013-04-29 14:02:00,
2013-04-29 10:11:00,55.0,43.0,30.20,SE,128,1.0,-999.0,63,-99.99,,,-99.99,,2013-04-29 14:11:00,
2013-04-29 10:21:00,57.0,44.0,30.20,WSW,248,1.0,-999.0,61,-99.99,,,-99.99,,2013-04-29 14:21:00,
2013-04-29 10:32:00,58.0,44.0,30.20,SW,224,1.0,-999.0,59,-99.99,,,-99.99,,2013-04-29 14:32:00,
2013-04-29 10:42:00,58.0,44.0,30.20,SW,224,1.0,-999.0,59,-99.99,,,-99.99,,2013-04-29 14:42:00,
2013-04-29 10:52:00,58.0,45.0,30.23,WSW,251,2.0,-999.0,61,-99.99,,,-99.99,,2013-04-29 14:52:00,
2013-04-29 11:01:00,60.0,46.0,30.23,SE,134,1.0,-999.0,59,-99.99,,,-99.99,,2013-04-29 15:01:00,
2013-04-29 11:12:00,60.0,46.0,30.23,SE,134,1.0,-999.0,59,-99.99,,,-99.99,,2013-04-29 15:12:00,
2013-04-29 11:21:00,61.0,45.0,30.22,SW,217,3.0,-999.0,55,-99.99,,,-99.99,,2013-04-29 15:21:00,
2013-04-29 11:33:00,62.0,44.0,30.22,South,171,2.0,-999.0,52,-99.99,,,-99.99,,2013-04-29 15:33:00,
2013-04-29 11:42:00,62.0,44.0,30.22,South,171,2.0,-999.0,52,-99.99,,,-99.99,,2013-04-29 15:42:00,
2013-04-29 11:53:00,63.0,44.0,30.23,South,175,1.0,-999.0,50,-99.99,,,-99.99,,2013-04-29 15:53:00,
2013-04-29 12:03:00,63.0,42.0,30.22,WSW,244,1.0,-999.0,46,-99.99,,,-99.99,,2013-04-29 16:03:00,
2013-04-29 12:12:00,63.0,42.0,30.22,WSW,244,1.0,-999.0,46,-99.99,,,-99.99,,2013-04-29 16:12:00,
2013-04-29 12:23:00,65.0,41.0,30.21,SSW,209,2.0,-999.0,41,-99.99,,,-99.99,,2013-04-29 16:23:00,
2013-04-29 12:33:00,65.0,41.0,30.21,SSE,158,3.0,-999.0,42,-99.99,,,-99.99,,2013-04-29 16:33:00,
2013-04-29 12:42:00,65.0,41.0,30.21,SSE,158,3.0,-999.0,42,-99.99,,,-99.99,,2013-04-29 16:42:00,
2013-04-29 12:52:00,65.0,39.0,30.21,West,268,1.0,-999.0,38,-99.99,,,-99.99,,2013-04-29 16:52:00,
2013-04-29 13:02:00,65.0,39.0,30.20,SSW,210,2.0,-999.0,39,-99.99,,,-99.99,,2013-04-29 17:02:00,
2013-04-29 13:12:00,65.0,39.0,30.20,SSW,210,2.0,-999.0,39,-99.99,,,-99.99,,2013-04-29 17:12:00,
2013-04-29 13:22:00,65.0,40.0,30.19,SW,230,1.0,-999.0,40,-99.99,,,-99.99,,2013-04-29 17:22:00,
2013-04-29 13:32:00,64.0,39.0,30.20,South,191,1.0,-999.0,40,-99.99,,,-99.99,,2013-04-29 17:32:00,
2013-04-29 13:42:00,64.0,39.0,30.20,South,191,1.0,-999.0,40,-99.99,,,-99.99,,2013-04-29 17:42:00,
2013-04-29 13:52:00,64.0,39.0,30.20,WSW,251,1.0,-999.0,39,-99.99,,,-99.99,,2013-04-29 17:52:00,
2013-04-29 14:01:00,65.0,39.0,30.19,NW,309,0.0,-999.0,39,-99.99,,,-99.99,,2013-04-29 18:01:00,
2013-04-29 14:13:00,65.0,39.0,30.19,NW,309,0.0,-999.0,39,-99.99,,,-99.99,,2013-04-29 18:13:00,
2013-04-29 14:22:00,66.0,38.0,30.18,WSW,257,0.0,-999.0,36,-99.99,,,-99.99,,2013-04-29 18:22:00,
2013-04-29 14:32:00,67.0,38.0,30.18,South,188,1.0,-999.0,34,-99.99,,,-99.99,,2013-04-29 18:32:00,
2013-04-29 14:42:00,67.0,38.0,30.18,South,188,1.0,-999.0,34,-99.99,,,-99.99,,2013-04-29 18:42:00,
2013-04-29 14:52:00,67.0,38.0,30.18,South,174,3.0,-999.0,35,-99.99,,,-99.99,,2013-04-29 18:52:00,
2013-04-29 15:01:00,66.0,38.0,30.18,South,182,0.0,-999.0,36,-99.99,,,-99.99,,2013-04-29 19:01:00,
2013-04-29 15:11:00,66.0,38.0,30.18,South,182,0.0,-999.0,36,-99.99,,,-99.99,,2013-04-29 19:11:00,
2013-04-29 15:21:00,66.0,39.0,30.17,SSW,193,2.0,-999.0,37,-99.99,,,-99.99,,2013-04-29 19:21:00,
2013-04-29 15:32:00,65.0,40.0,30.15,SW,220,1.0,-999.0,40,-99.99,,,-99.99,,2013-04-29 19:32:00,
2013-04-29 15:42:00,65.0,40.0,30.15,SW,220,1.0,-999.0,40,-99.99,,,-99.99,,2013-04-29 19:42:00,
2013-04-29 15:52:00,64.0,40.0,30.14,SW,224,1.0,-999.0,41,-99.99,,,-99.99,,2013-04-29 19:52:00,
2013-04-29 16:02:00,63.0,40.0,30.14,SSW,205,2.0,-999.0,43,-99.99,,,-99.99,,2013-04-29 20:02:00,
2013-04-29 16:12:00,63.0,40.0,30.14,SSW,205,2.0,-999.0,43,-99.99,,,-99.99,,2013-04-29 20:12:00,
2013-04-29 16:21:00,62.0,39.0,30.15,SW,236,2.0,-999.0,43,-99.99,,,-99.99,,2013-04-29 20:21:00,
2013-04-29 16:32:00,61.0,39.0,30.15,South,181,2.0,-999.0,44,-99.99,,,-99.99,,2013-04-29 20:32:00,
2013-04-29 16:42:00,61.0,39.0,30.15,South,181,2.0,-999.0,44,-99.99,,,-99.99,,2013-04-29 20:42:00,
2013-04-29 16:52:00,60.0,39.0,30.15,SSW,210,2.0,-999.0,45,-99.99,,,-99.99,,2013-04-29 20:52:00,
2013-04-29 17:01:00,60.0,38.0,30.15,SSW,198,2.0,-999.0,44,-99.99,,,-99.99,,2013-04-29 21:01:00,
2013-04-29 17:11:00,60.0,38.0,30.15,SSW,198,2.0,-999.0,44,-99.99,,,-99.99,,2013-04-29 21:11:00,
2013-04-29 17:22:00,60.0,37.0,30.15,WSW,247,1.0,-999.0,42,-99.99,,,-99.99,,2013-04-29 21:22:00,
2013-04-29 17:33:00,59.0,35.0,30.15,SSE,147,1.0,-999.0,41,-99.99,,,-99.99,,2013-04-29 21:33:00,
2013-04-29 17:43:00,59.0,35.0,30.15,SSE,147,1.0,-999.0,41,-99.99,,,-99.99,,2013-04-29 21:43:00,
2013-04-29 17:53:00,59.0,35.0,30.16,SW,233,1.0,-999.0,41,-99.99,,,-99.99,,2013-04-29 21:53:00,
2013-04-29 18:02:00,59.0,37.0,30.16,SW,227,0.0,-999.0,43,-99.99,,,-99.99,,2013-04-29 22:02:00,
2013-04-29 18:13:00,59.0,37.0,30.16,SW,227,0.0,-999.0,43,-99.99,,,-99.99,,2013-04-29 22:13:00,
2013-04-29 18:23:00,59.0,37.0,30.16,SW,227,0.0,-999.0,44,-99.99,,,-99.99,,2013-04-29 22:23:00,
2013-04-29 18:32:00,59.0,37.0,30.16,SW,227,0.0,-999.0,44,-99.99,,,-99.99,,2013-04-29 22:32:00,
2013-04-29 18:42:00,59.0,37.0,30.16,SW,227,0.0,-999.0,44,-99.99,,,-99.99,,2013-04-29 22:42:00,
2013-04-29 18:53:00,58.0,37.0,30.17,SW,229,0.0,-999.0,46,-99.99,,,-99.99,,2013-04-29 22:53:00,
2013-04-29 19:02:00,57.0,42.0,30.17,SSW,195,0.0,-999.0,57,-99.99,,,-99.99,,2013-04-29 23:02:00,
2013-04-29 19:12:00,57.0,42.0,30.17,SSW,195,0.0,-999.0,57,-99.99,,,-99.99,,2013-04-29 23:12:00,
2013-04-29 19:22:00,56.0,45.0,30.17,South,176,0.0,-999.0,67,-99.99,,,-99.99,,2013-04-29 23:22:00,
2013-04-29 19:32:00,55.0,41.0,30.17,South,171,0.0,-999.0,58,-99.99,,,-99.99,,2013-04-29 23:32:00,
2013-04-29 19:42:00,55.0,41.0,30.17,South,171,0.0,-999.0,58,-99.99,,,-99.99,,2013-04-29 23:42:00,
2013-04-29 19:52:00,55.0,41.0,30.18,SE,140,0.0,-999.0,58,-99.99,,,-99.99,,2013-04-29 23:52:00,
2013-04-29 20:01:00,55.0,40.0,30.18,SW,232,0.0,-999.0,56,-99.99,,,-99.99,,2013-04-30 00:01:00,
2013-04-29 20:11:00,55.0,40.0,30.18,SW,232,0.0,-999.0,56,-99.99,,,-99.99,,2013-04-30 00:11:00,
2013-04-29 20:21:00,55.0,39.0,30.18,SSW,205,0.0,-999.0,55,-99.99,,,-99.99,,2013-04-30 00:21:00,
2013-04-29 20:32:00,55.0,41.0,30.18,SE,145,0.0,-999.0,60,-99.99,,,-99.99,,2013-04-30 00:32:00,
2013-04-29 20:42:00,55.0,41.0,30.18,SE,145,0.0,-999.0,60,-99.99,,,-99.99,,2013-04-30 00:42:00,
2013-04-29 20:52:00,54.0,38.0,30.18,West,267,0.0,-999.0,55,-99.99,,,-99.99,,2013-04-30 00:52:00,
2013-04-29 21:02:00,54.0,40.0,30.19,SSE,167,0.0,-999.0,60,-99.99,,,-99.99,,2013-04-30 01:02:00,
2013-04-29 21:11:00,54.0,40.0,30.19,SSE,167,0.0,-999.0,60,-99.99,,,-99.99,,2013-04-30 01:11:00,
2013-04-29 21:22:00,54.0,39.0,30.19,East,83,0.0,-999.0,56,-99.99,,,-99.99,,2013-04-30 01:22:00,
2013-04-29 21:32:00,54.0,37.0,30.20,South,182,0.0,-999.0,53,-99.99,,,-99.99,,2013-04-30 01:32:00,
2013-04-29 21:41:00,54.0,37.0,30.20,South,182,0.0,-999.0,53,-99.99,,,-99.99,,2013-04-30 01:41:00,
2013-04-29 21:52:00,54.0,33.0,30.20,South,188,0.0,-999.0,44,-99.99,,,-99.99,,2013-04-30 01:52:00,
2013-04-29 22:01:00,54.0,36.0,30.20,SSE,168,0.0,-999.0,51,-99.99,,,-99.99,,2013-04-30 02:01:00,
2013-04-29 22:11:00,54.0,36.0,30.20,SSE,168,0.0,-999.0,51,-99.99,,,-99.99,,2013-04-30 02:11:00,
2013-04-29 22:21:00,54.0,35.0,30.20,ENE,62,0.0,-999.0,49,-99.99,,,-99.99,,2013-04-30 02:21:00,
2013-04-29 22:31:00,53.0,35.0,30.23,ENE,62,0.0,-999.0,51,-99.99,,,-99.99,,2013-04-30 02:31:00,
2013-04-29 22:41:00,53.0,35.0,30.23,ENE,62,0.0,-999.0,51,-99.99,,,-99.99,,2013-04-30 02:41:00,
2013-04-29 22:51:00,53.0,35.0,30.23,ENE,66,0.0,-999.0,51,-99.99,,,-99.99,,2013-04-30 02:51:00,
2013-04-29 23:01:00,53.0,35.0,30.23,NW,318,0.0,-999.0,51,-99.99,,,-99.99,,2013-04-30 03:01:00,
2013-04-29 23:11:00,53.0,35.0,30.24,SW,236,0.0,-999.0,51,-99.99,,,-99.99,,2013-04-30 03:11:00,
2013-04-29 23:21:00,53.0,35.0,30.24,SW,236,0.0,-999.0,51,-99.99,,,-99.99,,2013-04-30 03:21:00,
2013-04-29 23:33:00,53.0,33.0,30.23,South,169,0.0,-999.0,46,-99.99,,,-99.99,,2013-04-30 03:33:00,
2013-04-29 23:42:00,53.0,33.0,30.23,South,169,0.0,-999.0,46,-99.99,,,-99.99,,2013-04-30 03:42:00,
2013-04-29 23:52:00,53.0,31.0,30.23,WSW,240,0.0,-999.0,43,-99.99,,,-99.99,,2013-04-30 03:52:00,